DELTA 1 DEB

Satellite information

Favourite Embed

Satellite Type and Status

DEBRISIN ORBIT

Key statistics

Satellite DELTA 1 DEB at a glance.

Uptime

18289

Days in orbit

Revolutions

≈ 13.1

Per day

Orbit

SSO

Sun Synchronous Orbit

Inclination

99.4

Latest

Satellite identification and parameters

Extended collection of information and parameters for DELTA 1 DEB.

Object identification

Identified? True

Debris? True

Object name: DELTA 1 DEB

International designator: 1975-052EA

Object number (NORAD): 21442

Object ID (CCSDS): 21442

Country: UNITED STATES OF AMERICA (US)

Current information (Y/N): Y

RCS size: SMALL

Orbital parameters

Period: 109.889 minutes

Inclination: 99.4377 deg

SMA: 7599.718 km

Apoapsis: 1475.971 km

Periapsis: 967.196 km

RAAN: 115.9787 deg

Eccentricy: 0.0334733

Argument of periapsis: 328.2451 deg

Mean anomaly: 57.3993 deg

Mean motion: 13.10407978 rev/day

Mean motion (dot): 0.0000156 rev/day2

B* drag term: 0.0034687 1/REarth

Two-line elements (TLE)

Creation date: July 8, 2025, 2:27 a.m.

Reference frame: TEME

Reference center: EARTH

Epoch: July 6, 2025, 6:09 p.m. UTC

TLE line 0: 0 DELTA 1 DEB

TLE line 1: 1 21442U 75052EA 25187.75667157 .00001560 00000-0 34687-2 0 9991

TLE line 2: 2 21442 99.4377 115.9787 0334733 328.2451 57.3993 13.10407978594082

Live tracking on map

Real-time ground track for satellite DELTA 1 DEB.

In-orbit conjunctions

A list of the most updated potential collisions computed for object DELTA 1 DEB.

Target Orbit TCA Probability of collision Miss distance Type
DELTA 1 DEB SSO 2024-09-25 16:32:31 0.0003584092 504.0 (m) DEBRIS

Associated space launch

Experimental meteorological satellite

DELTA 1 DEB was lifted into orbit during the mission ‘Delta 2910 | Nimbus 6’, on board a Delta 2910 space rocket.

The launch took place on June 12, 1975, 8:12 a.m. from Space Launch Complex 2W.

For more information about the launch, click the button.

Launch to space Delta 2910 | Nimbus 6
Delta 2910 | Nimbus 6

Agency: N/A

Status: Launch Successful

Launch date: June 12, 1975, 8:12 a.m. UTC

Rocket: Delta 2910

Launch pad: Space Launch Complex 2W

Location: Vandenberg SFB, CA, USA

...

Latest news about this satellite

There are no fresh news available about this satellite. Check back as we update our databases every day.


Newsletter sign-up

Weekly statistics, charts and insights to help you stay on top of the space industry.